GW7727 Weather Reports


time (UTC)temp
C
wind
direction
speed
KPH
gust
KPH
rain 1hr
cm
rain 24hr
cm
rain mn
cm
humidity
%
barometer
mb
20260906172336 35 44 3.2 3.2 0.00 0.00 0.00 49 1015.7
20260906171831 35 46 4.8 4.8 0.00 0.00 0.00 50 1015.7
20260906171326 34 12 3.2 3.2 0.00 0.00 0.00 51 1015.8
20260906170822 34 12 6.4 6.4 0.00 0.00 0.00 52 1016.0
20260906170318 34 8 8.0 6.4 0.00 0.00 0.00 53 1015.9
20260906165814 35 24 3.2 3.2 0.00 0.00 0.00 53 1016.1
20260906165313 34 33 3.2 3.2 0.00 0.00 0.00 55 1016.1
20260906164814 34 15 1.6 1.6 0.00 0.00 0.00 54 1016.0
20260906164308 33 13 0.0 1.6 0.00 0.00 0.00 56 1016.1
20260906163804 33 12 1.6 3.2 0.00 0.00 0.00 58 1016.2
20260906163300 32 8 4.8 4.8 0.00 0.00 0.00 58 1016.0
20260906162757 33 26 4.8 6.4 0.00 0.00 0.00 56 1016.3
20260906162256 33 352 1.6 1.6 0.00 0.00 0.00 57 1016.2
20260906161756 33 9 6.4 6.4 0.00 0.00 0.00 57 1016.2
20260906161255 32 40 3.2 3.2 0.00 0.00 0.00 59 1016.1
20260906160754 32 34 1.6 1.6 0.00 0.00 0.00 60 1016.4
20260906160249 32 15 0.0 0.0 0.00 0.00 0.00 60 1016.2
20260906155747 32 6 3.2 1.6 0.00 0.00 0.00 61 1016.0
20260906155242 31 33 6.4 6.4 0.00 0.00 0.00 63 1016.1
20260906154737 31 30 3.2 4.8 0.00 0.00 0.00 64 1016.1
20260906154232 31 16 3.2 3.2 0.00 0.00 0.00 64 1016.2
20260906153730 31 10 3.2 3.2 0.00 0.00 0.00 62 1016.0
20260906153220 30 36 3.2 3.2 0.00 0.00 0.00 65 1016.1
20260906152715 30 265 1.6 1.6 0.00 0.00 0.00 64 1016.2
20260906152215 30 355 0.0 0.0 0.00 0.00 0.00 64 1016.0
20260906151709 30 9 3.2 3.2 0.00 0.00 0.00 66 1016.1
20260906151205 30 13 4.8 6.4 0.00 0.00 0.00 66 1015.9
20260906150700 30 52 3.2 3.2 0.00 0.00 0.00 67 1016.0
20260906150156 30 13 0.0 0.0 0.00 0.00 0.00 67 1016.0
20260906145655 30 22 3.2 4.8 0.00 0.00 0.00 67 1015.9
20260906145154 30 336 0.0 1.6 0.00 0.00 0.00 68 1016.0
20260906144654 29 9 1.6 1.6 0.00 0.00 0.00 68 1016.2
20260906144149 29 359 3.2 3.2 0.00 0.00 0.00 69 1016.1
20260906143649 29 359 1.6 1.6 0.00 0.00 0.00 69 1016.0
20260906143146 29 6 0.0 0.0 0.00 0.00 0.00 69 1016.0
20260906142645 28 46 3.2 4.8 0.00 0.00 0.00 70 1015.9
20260906142141 28 16 3.2 3.2 0.00 0.00 0.00 70 1016.0
20260906141639 28 272 1.6 1.6 0.00 0.00 0.00 70 1016.1
20260906141135 28 352 3.2 3.2 0.00 0.00 0.00 69 1016.0
20260906140634 28 16 0.0 0.0 0.00 0.00 0.00 72 1015.9
20260906140129 28 12 1.6 3.2 0.00 0.00 0.00 71 1016.0
20260906135626 28 13 1.6 1.6 0.00 0.00 0.00 72 1015.9
20260906135122 27 19 0.0 0.0 0.00 0.00 0.00 74 1015.9
20260906134618 27 0 1.6 1.6 0.00 0.00 0.00 74 1015.8
20260906134113 27 30 0.0 1.6 0.00 0.00 0.00 74 1015.9
20260906133609 27 22 3.2 4.8 0.00 0.00 0.00 75 1015.9
20260906133109 27 0 1.6 1.6 0.00 0.00 0.00 74 1015.9
20260906132604 27 15 0.0 0.0 0.00 0.00 0.00 75 1015.9
20260906132059 26 21 0.0 1.6 0.00 0.00 0.00 76 1015.9
20260906131555 26 352 0.0 1.6 0.00 0.00 0.00 76 1015.8
20260906131050 26 22 1.6 1.6 0.00 0.00 0.00 77 1015.6
20260906130549 26 15 1.6 1.6 0.00 0.00 0.00 77 1015.6
20260906130045 26 23 1.6 1.6 0.00 0.00 0.00 79 1015.5
20260906125542 25 34 1.6 3.2 0.00 0.00 0.00 79 1015.5
20260906125042 25 34 0.0 0.0 0.00 0.00 0.00 79 1015.6
20260906124538 25 30 0.0 0.0 0.00 0.00 0.00 79 1015.4
20260906124033 25 41 1.6 1.6 0.00 0.00 0.00 80 1015.3
20260906123532 25 41 0.0 1.6 0.00 0.00 0.00 80 1015.2
20260906123027 25 41 1.6 1.6 0.00 0.00 0.00 80 1015.1
20260906122521 25 37 1.6 1.6 0.00 0.00 0.00 80 1015.1
20260906122017 25 35 0.0 1.6 0.00 0.00 0.00 81 1015.0
20260906121513 25 35 1.6 1.6 0.00 0.00 0.00 81 1015.1
20260906121010 25 35 1.6 1.6 0.00 0.00 0.00 81 1015.1
20260906120509 25 35 0.0 0.0 0.00 0.00 0.00 81 1015.1
20260906120008 25 35 0.0 0.0 0.00 0.00 0.00 82 1014.6
20260906115502 24 35 0.0 0.0 0.00 0.00 0.00 82 1014.9
20260906115002 25 35 0.0 0.0 0.00 0.00 0.00 82 1015.0
20260906114456 25 35 0.0 0.0 0.00 0.00 0.00 82 1015.0
20260906113953 25 35 1.6 1.6 0.00 0.00 0.00 82 1014.9
20260906113451 25 35 1.6 1.6 0.00 0.00 0.00 82 1014.8
20260906112946 25 35 0.0 0.0 0.00 0.00 0.00 82 1014.5
20260906112442 25 34 1.6 1.6 0.00 0.00 0.00 82 1014.6
20260906111938 25 34 1.6 1.6 0.00 0.00 0.00 81 1014.8
20260906111436 25 34 0.0 0.0 0.00 0.00 0.00 81 1014.6
20260906110931 25 34 1.6 1.6 0.00 0.00 0.00 80 1014.5
20260906110427 25 34 0.0 0.0 0.00 0.00 0.00 80 1014.6
20260906105926 25 34 1.6 1.6 0.00 0.00 0.00 81 1014.6
20260906105422 25 34 1.6 1.6 0.00 0.00 0.00 82 1014.3
20260906104918 25 34 0.0 0.0 0.00 0.00 0.00 82 1014.5
20260906104416 25 34 0.0 0.0 0.00 0.00 0.00 83 1014.6
20260906103915 25 34 1.6 1.6 0.00 0.00 0.00 83 1014.6
20260906103414 25 34 0.0 0.0 0.00 0.00 0.00 84 1014.6
20260906102910 24 34 1.6 1.6 0.00 0.00 0.00 85 1014.5
20260906102409 25 34 0.0 0.0 0.00 0.00 0.00 85 1014.5
20260906101904 25 34 0.0 0.0 0.00 0.00 0.00 83 1014.6
20260906101359 25 34 0.0 0.0 0.00 0.00 0.00 82 1014.5
20260906100854 25 34 0.0 0.0 0.00 0.00 0.00 81 1014.5
20260906100353 25 34 1.6 1.6 0.00 0.00 0.00 81 1014.4
20260906095848 25 34 0.0 0.0 0.00 0.00 0.00 80 1014.2
20260906095344 25 34 0.0 0.0 0.00 0.00 0.00 80 1014.3
20260906094844 25 34 0.0 0.0 0.00 0.00 0.00 80 1014.2
20260906094339 25 34 1.6 1.6 0.00 0.00 0.00 81 1014.1
20260906093835 25 34 0.0 0.0 0.00 0.00 0.00 81 1014.1
20260906093331 25 34 0.0 0.0 0.00 0.00 0.00 81 1014.1
20260906092825 25 34 1.6 1.6 0.00 0.00 0.00 80 1013.9
20260906092325 25 34 1.6 1.6 0.00 0.00 0.00 79 1014.1
20260906091821 25 34 1.6 1.6 0.00 0.00 0.00 79 1013.9
20260906091317 25 34 1.6 1.6 0.00 0.00 0.00 79 1013.8
20260906090814 25 34 1.6 1.6 0.00 0.00 0.00 80 1013.8
20260906090312 25 34 1.6 1.6 0.00 0.00 0.00 82 1013.8
20260906085807 25 34 1.6 1.6 0.00 0.00 0.00 82 1014.0
20260906085307 25 34 0.0 0.0 0.00 0.00 0.00 81 1013.9
20260906084801 25 34 1.6 1.6 0.00 0.00 0.00 80 1013.7
20260906084300 25 34 0.0 0.0 0.00 0.00 0.00 81 1013.8
20260906083755 25 34 1.6 1.6 0.00 0.00 0.00 83 1013.7
20260906083250 24 34 0.0 0.0 0.00 0.00 0.00 87 1013.6
20260906082745 25 34 0.0 0.0 0.00 0.00 0.00 88 1013.6
20260906082240 25 34 0.0 0.0 0.00 0.00 0.00 87 1013.8
20260906081736 25 34 0.0 0.0 0.00 0.00 0.00 86 1013.6
20260906081231 25 34 0.0 0.0 0.00 0.00 0.00 85 1013.6
20260906080728 25 34 0.0 0.0 0.00 0.00 0.00 85 1013.5
20260906080224 25 34 0.0 0.0 0.00 0.00 0.00 84 1013.6
20260906075724 25 34 0.0 0.0 0.00 0.00 0.00 84 1013.7
20260906075224 25 34 0.0 0.0 0.00 0.00 0.00 83 1013.5
20260906074719 25 34 0.0 0.0 0.00 0.00 0.00 82 1013.6
20260906074218 25 34 0.0 0.0 0.00 0.00 0.00 81 1013.6
20260906073713 26 34 0.0 0.0 0.00 0.00 0.00 80 1013.6
20260906073208 26 34 0.0 0.0 0.00 0.00 0.00 79 1013.6
20260906072704 26 34 0.0 0.0 0.00 0.00 0.00 78 1013.4
20260906072159 26 34 0.0 0.0 0.00 0.00 0.00 77 1013.6
20260906071655 26 34 0.0 0.0 0.00 0.00 0.00 77 1013.8
20260906071154 26 34 1.6 1.6 0.00 0.00 0.00 77 1013.6
20260906070652 26 34 0.0 1.6 0.00 0.00 0.00 77 1013.6
20260906070147 26 34 0.0 0.0 0.00 0.00 0.00 77 1013.7
20260906065646 26 34 0.0 0.0 0.00 0.00 0.00 78 1013.9
20260906065142 26 34 0.0 0.0 0.00 0.00 0.00 77 1013.8
20260906064637 27 34 0.0 0.0 0.00 0.00 0.00 76 1013.8
20260906064133 27 34 1.6 1.6 0.00 0.00 0.00 76 1013.9
20260906063628 27 32 1.6 1.6 0.00 0.00 0.00 75 1014.0
20260906063124 27 31 0.0 0.0 0.00 0.00 0.00 75 1014.2
20260906062619 27 31 0.0 0.0 0.00 0.00 0.00 74 1014.1
20260906062118 27 31 0.0 0.0 0.00 0.00 0.00 73 1014.1
20260906061614 27 32 0.0 0.0 0.00 0.00 0.00 72 1013.9
20260906061114 27 18 1.6 1.6 0.00 0.00 0.00 72 1013.9
20260906060611 27 17 0.0 0.0 0.00 0.00 0.00 71 1014.2
20260906060108 27 14 1.6 1.6 0.00 0.00 0.00 71 1014.1
20260906055603 27 358 0.0 0.0 0.00 0.00 0.00 70 1014.4
20260906055058 27 331 0.0 0.0 0.00 0.00 0.00 69 1014.1
20260906054558 27 331 0.0 0.0 0.00 0.00 0.00 68 1014.3
20260906054053 27 331 0.0 0.0 0.00 0.00 0.00 67 1014.3
20260906053550 27 331 0.0 0.0 0.00 0.00 0.00 68 1014.1
20260906053045 27 331 0.0 0.0 0.00 0.00 0.00 69 1014.1
20260906052540 27 331 0.0 0.0 0.00 0.00 0.00 69 1014.3
20260906052038 27 331 0.0 0.0 0.00 0.00 0.00 69 1013.9
20260906051533 27 331 0.0 0.0 0.00 0.00 0.00 68 1014.0
20260906051028 27 331 0.0 0.0 0.00 0.00 0.00 68 1014.1
20260906050523 27 331 0.0 0.0 0.00 0.00 0.00 67 1014.3
20260906050018 27 331 0.0 0.0 0.00 0.00 0.00 67 1014.1
20260906045516 27 331 0.0 0.0 0.00 0.00 0.00 67 1014.1
20260906045012 27 331 0.0 0.0 0.00 0.00 0.00 65 1014.0
20260906044508 28 331 0.0 0.0 0.00 0.00 0.00 64 1014.2
20260906044003 28 331 0.0 0.0 0.00 0.00 0.00 65 1014.2
20260906043459 28 331 0.0 0.0 0.00 0.00 0.00 64 1014.1
20260906042954 28 331 0.0 0.0 0.00 0.00 0.00 64 1014.1
20260906042453 28 331 0.0 0.0 0.00 0.00 0.00 63 1014.3
20260906041953 28 331 0.0 0.0 0.00 0.00 0.00 63 1014.3
20260906041450 28 331 1.6 1.6 0.00 0.00 0.00 63 1014.4
20260906040949 28 331 0.0 0.0 0.00 0.00 0.00 63 1014.1
20260906040444 28 331 0.0 0.0 0.00 0.00 0.00 63 1014.2
20260906035939 28 331 0.0 0.0 0.00 0.00 0.00 64 1014.1
20260906035435 28 331 0.0 0.0 0.00 0.00 0.00 65 1014.2
20260906034930 28 331 0.0 0.0 0.00 0.00 0.00 66 1013.8
20260906034425 28 331 0.0 0.0 0.00 0.00 0.00 66 1013.9
20260906033920 27 331 0.0 0.0 0.00 0.00 0.00 67 1014.0
20260906033421 27 26 0.0 0.0 0.00 0.00 0.00 68 1013.8
20260906032916 27 26 0.0 0.0 0.00 0.00 0.00 66 1013.6
20260906032413 28 26 0.0 0.0 0.00 0.00 0.00 65 1013.7
20260906031913 28 26 0.0 0.0 0.00 0.00 0.00 64 1013.8
20260906031408 28 348 0.0 0.0 0.00 0.00 0.00 63 1013.7
20260906030903 28 348 0.0 0.0 0.00 0.00 0.00 62 1013.7
20260906030358 29 348 0.0 0.0 0.00 0.00 0.00 61 1013.7
20260906025853 29 348 0.0 0.0 0.00 0.00 0.00 59 1013.7
20260906025353 30 348 0.0 0.0 0.00 0.00 0.00 59 1013.5
20260906024851 30 348 0.0 0.0 0.00 0.00 0.00 58 1013.5
20260906024351 30 347 0.0 0.0 0.00 0.00 0.00 57 1013.6
20260906023846 30 348 0.0 0.0 0.00 0.00 0.00 57 1013.5
20260906023342 30 12 0.0 0.0 0.00 0.00 0.00 56 1013.5
20260906022837 30 12 0.0 0.0 0.00 0.00 0.00 55 1013.1
20260906022337 30 12 0.0 0.0 0.00 0.00 0.00 55 1013.2
20260906021833 31 12 0.0 0.0 0.00 0.00 0.00 54 1013.2
20260906021333 31 11 0.0 0.0 0.00 0.00 0.00 53 1013.1
20260906020828 31 6 0.0 0.0 0.00 0.00 0.00 53 1013.1
20260906020327 31 6 1.6 1.6 0.00 0.00 0.00 53 1012.7
20260906015822 31 6 3.2 3.2 0.00 0.00 0.00 53 1012.8
20260906015321 30 3 1.6 1.6 0.00 0.00 0.00 54 1012.8
20260906014820 30 352 0.0 0.0 0.00 0.00 0.00 54 1012.6
20260906014316 31 352 0.0 0.0 0.00 0.00 0.00 53 1012.7
20260906013812 31 352 0.0 0.0 0.00 0.00 0.00 53 1012.5
20260906013307 31 352 0.0 0.0 0.00 0.00 0.00 52 1012.5
20260906012802 31 352 0.0 0.0 0.00 0.00 0.00 52 1012.6
20260906012257 31 19 0.0 0.0 0.00 0.00 0.00 51 1012.5
20260906011752 31 19 0.0 0.0 0.00 0.00 0.00 51 1012.6
20260906011252 31 19 0.0 0.0 0.00 0.00 0.00 50 1012.4
20260906010748 32 19 0.0 0.0 0.00 0.00 0.00 49 1012.4
20260906010244 32 19 0.0 0.0 0.00 0.00 0.00 48 1012.4
20260906005739 32 351 0.0 0.0 0.00 0.00 0.00 49 1012.5
20260906005238 32 351 0.0 0.0 0.00 0.00 0.00 48 1012.3
20260906004737 32 351 0.0 0.0 0.00 0.00 0.00 47 1012.3
20260906004233 33 5 0.0 0.0 0.00 0.00 0.00 46 1012.3
20260906003733 33 5 0.0 0.0 0.00 0.00 0.00 45 1012.3
20260906003229 33 11 1.6 1.6 0.00 0.00 0.00 44 1012.4
20260906002729 33 4 0.0 0.0 0.00 0.00 0.00 44 1012.3
20260906002229 34 4 0.0 0.0 0.00 0.00 0.00 43 1012.3
20260906001724 34 1 1.6 1.6 0.00 0.00 0.00 41 1012.3
20260906001219 35 7 0.0 0.0 0.00 0.00 0.00 41 1012.2
20260906000714 35 3 0.0 0.0 0.00 0.00 0.00 40 1012.5
20260906000212 35 16 1.6 1.6 0.00 0.00 0.00 38 1012.4
20260905235709 36 22 1.6 1.6 0.00 0.00 0.00 38 1012.6
20260905235204 36 9 3.2 3.2 0.00 0.00 0.00 37 1012.3
20260905234659 36 38 3.2 3.2 0.00 0.00 0.00 37 1012.4
20260905234154 36 1 1.6 1.6 0.00 0.00 0.00 37 1012.2
20260905233649 36 6 3.2 3.2 0.00 0.00 0.00 37 1012.5
20260905233149 36 15 3.2 3.2 0.00 0.00 0.00 36 1012.3
20260905232644 36 6 1.6 1.6 0.00 0.00 0.00 36 1012.2
20260905232140 37 4 3.2 4.8 0.00 0.00 0.00 35 1012.4
20260905231635 37 19 4.8 4.8 0.00 0.00 0.00 35 1012.4
20260905231131 37 18 6.4 6.4 0.00 0.00 0.00 34 1012.2
20260905230627 37 32 4.8 6.4 0.00 0.00 0.00 34 1012.2
20260905230125 37 356 8.0 9.7 0.00 0.00 0.00 33 1012.2
20260905225625 37 17 4.8 6.4 0.00 0.00 0.00 33 1012.1
20260905225120 37 19 4.8 4.8 0.00 0.00 0.00 33 1012.1
20260905224619 37 10 9.7 11.3 0.00 0.00 0.00 33 1012.4
20260905224119 38 359 6.4 6.4 0.00 0.00 0.00 33 1012.0
20260905223616 38 6 8.0 11.3 0.00 0.00 0.00 32 1012.1
20260905223112 38 26 8.0 11.3 0.00 0.00 0.00 33 1012.2
20260905222612 38 19 3.2 4.8 0.00 0.00 0.00 32 1012.1
20260905222108 38 27 3.2 3.2 0.00 0.00 0.00 33 1012.1
20260905221603 38 358 4.8 4.8 0.00 0.00 0.00 32 1012.1
20260905221100 38 352 8.0 6.4 0.00 0.00 0.00 32 1012.2
20260905220555 38 2 8.0 9.7 0.00 0.00 0.00 31 1012.2
20260905220051 38 319 6.4 11.3 0.00 0.00 0.00 32 1012.3
20260905215550 38 359 8.0 9.7 0.00 0.00 0.00 32 1012.3
20260905215047 38 337 8.0 12.9 0.00 0.00 0.00 32 1012.3
20260905214543 39 354 3.2 1.6 0.00 0.00 0.00 33 1012.5
20260905214043 38 348 1.6 1.6 0.00 0.00 0.00 32 1012.6
20260905213538 38 11 0.0 0.0 0.00 0.00 0.00 34 1012.6
20260905213033 38 358 9.7 12.9 0.00 0.00 0.00 32 1012.5
20260905212528 38 342 9.7 9.7 0.00 0.00 0.00 32 1012.4
20260905212028 39 353 9.7 12.9 0.00 0.00 0.00 31 1012.5
20260905211523 39 320 0.0 0.0 0.00 0.00 0.00 31 1012.6
20260905211019 38 19 0.0 1.6 0.00 0.00 0.00 33 1012.6
20260905210514 38 16 6.4 9.7 0.00 0.00 0.00 32 1012.8
20260905210009 39 333 4.8 4.8 0.00 0.00 0.00 31 1012.9
20260905205508 40 357 8.0 9.7 0.00 0.00 0.00 30 1012.6
20260905205007 40 6 0.0 1.6 0.00 0.00 0.00 30 1012.8
20260905204503 39 352 0.0 0.0 0.00 0.00 0.00 32 1012.8
20260905204003 39 16 6.4 6.4 0.00 0.00 0.00 32 1012.8
20260905203457 38 18 6.4 6.4 0.00 0.00 0.00 31 1012.9
20260905202953 38 291 3.2 3.2 0.00 0.00 0.00 31 1012.9
20260905202447 38 320 4.8 11.3 0.00 0.00 0.00 31 1013.1
20260905175406 37 303 1.6 3.2 0.00 0.00 0.00 37 1014.9
20260905174901 37 303 1.6 3.2 0.00 0.00 0.00 37 1014.9
20260905174357 37 313 1.6 1.6 0.00 0.00 0.00 36 1015.0
20260905173852 37 346 3.2 4.8 0.00 0.00 0.00 37 1015.2
20260905173348 37 306 4.8 6.4 0.00 0.00 0.00 37 1015.4
20260905172843 37 264 4.8 4.8 0.00 0.00 0.00 39 1015.0